CCA1573 ZSQD-ZBAA

Flight info

Callsign CCA1573
Flight time N/A
Altitude 36100
Route WFG81D WFG W103 YQG W160 TUMLO W157 BEKDO/K0830S1130 W157 AVBOX AVBOX6J
Aircraft A320/M-SDE3FGHIRWY/LB1

Departure

Time 2026-04-18 06:05
Airport Qingdao Jiaodong International Airport (ZSQD)

Arrival

Time N/A
Airport Beijing Capital International Airport (ZBAA)
Time Latitude Longitude Altitude Speed Heading
2026-04-18 05:53 36.38061 120.09346 38 ft 0 kts 162°
2026-04-18 06:04 36.38060 120.09346 38 ft 2 kts 162°
2026-04-18 06:04 36.37994 120.09372 37 ft 28 kts 163°
2026-04-18 06:04 36.37582 120.09532 36 ft 105 kts 165°
2026-04-18 06:04 36.36755 120.09876 36 ft 163 kts 160°
2026-04-18 06:05 36.35608 120.10298 311 ft 186 kts 161°
2026-04-18 06:05 36.34527 120.10768 1266 ft 181 kts 159°
2026-04-18 06:05 36.33402 120.11262 2191 ft 187 kts 162°
2026-04-18 06:05 36.32069 120.11786 2989 ft 204 kts 162°
2026-04-18 06:06 36.30668 120.12327 3768 ft 221 kts 162°
2026-04-18 06:06 36.28991 120.12978 4450 ft 249 kts 162°
2026-04-18 06:06 36.27687 120.13455 5367 ft 250 kts 167°
2026-04-18 06:06 36.26041 120.13329 6562 ft 252 kts 200°
2026-04-18 06:07 36.24774 120.12190 7508 ft 258 kts 231°
2026-04-18 06:07 36.24051 120.10509 8373 ft 266 kts 249°
2026-04-18 06:07 36.23561 120.08381 9160 ft 268 kts 256°
2026-04-18 06:07 36.23202 120.06163 9684 ft 278 kts 257°
2026-04-18 06:08 36.22829 120.03802 10335 ft 282 kts 256°
2026-04-18 06:08 36.22404 120.01426 10987 ft 284 kts 255°
2026-04-18 06:08 36.21921 119.99048 11637 ft 286 kts 253°
2026-04-18 06:08 36.21490 119.96617 12283 ft 289 kts 266°
2026-04-18 06:09 36.21727 119.94182 12960 ft 290 kts 289°
2026-04-18 06:09 36.22713 119.92027 13623 ft 289 kts 313°
2026-04-18 06:09 36.23713 119.90935 14019 ft 288 kts 329°
2026-04-18 06:09 36.24602 119.90347 14304 ft 288 kts 340°
2026-04-18 06:10 36.26388 119.89621 14799 ft 290 kts 344°
2026-04-18 06:10 36.28195 119.88928 15286 ft 293 kts 344°
2026-04-18 06:10 36.30216 119.88140 15847 ft 296 kts 343°
2026-04-18 06:10 36.32186 119.87365 16375 ft 299 kts 343°
2026-04-18 06:11 36.34138 119.86441 16901 ft 302 kts 335°
2026-04-18 06:11 36.35977 119.85093 17433 ft 306 kts 325°
2026-04-18 06:11 36.37576 119.83418 17926 ft 310 kts 315°
2026-04-18 06:11 36.39045 119.81244 18449 ft 313 kts 305°
2026-04-18 06:12 36.40190 119.78767 18911 ft 316 kts 294°
2026-04-18 06:12 36.41111 119.76221 19357 ft 318 kts 294°
2026-04-18 06:12 36.41868 119.74147 19707 ft 320 kts 295°
2026-04-18 06:12 36.42685 119.71922 20085 ft 322 kts 295°
2026-04-18 06:13 36.43588 119.69475 20480 ft 325 kts 295°
2026-04-18 06:13 36.44571 119.66816 20928 ft 327 kts 295°
2026-04-18 06:13 36.45588 119.64074 21378 ft 329 kts 295°
2026-04-18 06:13 36.46568 119.61431 21804 ft 331 kts 295°
2026-04-18 06:14 36.47480 119.58964 22204 ft 334 kts 295°
2026-04-18 06:14 36.48461 119.56308 22337 ft 348 kts 295°
2026-04-18 06:14 36.49524 119.53425 22487 ft 362 kts 295°
2026-04-18 06:14 36.50623 119.50442 22621 ft 376 kts 295°
2026-04-18 06:15 36.51703 119.47506 22753 ft 389 kts 294°
2026-04-18 06:15 36.52916 119.44204 22895 ft 403 kts 294°
2026-04-18 06:15 36.54102 119.40973 23026 ft 415 kts 294°
2026-04-18 06:15 36.55249 119.37843 23152 ft 425 kts 294°
2026-04-18 06:16 36.56283 119.35017 23269 ft 434 kts 294°
2026-04-18 06:16 36.57360 119.32070 23445 ft 440 kts 294°
2026-04-18 06:16 36.58610 119.28646 23749 ft 443 kts 294°
2026-04-18 06:16 36.59896 119.25116 24087 ft 445 kts 294°
2026-04-18 06:17 36.61188 119.21575 24435 ft 446 kts 294°
2026-04-18 06:17 36.62470 119.18059 24796 ft 447 kts 294°
2026-04-18 06:17 36.63772 119.14477 25166 ft 447 kts 294°
2026-04-18 06:17 36.65058 119.10942 25528 ft 448 kts 294°
2026-04-18 06:18 36.66329 119.07505 25868 ft 448 kts 294°
2026-04-18 06:18 36.67651 119.03961 26212 ft 448 kts 294°
2026-04-18 06:18 36.69107 119.00555 26540 ft 449 kts 304°
2026-04-18 06:18 36.71222 118.97489 26889 ft 450 kts 313°
2026-04-18 06:19 36.73441 118.94597 27187 ft 451 kts 313°
2026-04-18 06:19 36.75671 118.91724 27479 ft 452 kts 313°
2026-04-18 06:19 36.77524 118.89352 27710 ft 453 kts 313°
2026-04-18 06:19 36.79738 118.86515 27980 ft 454 kts 313°
2026-04-18 06:20 36.81903 118.83733 28218 ft 455 kts 313°
2026-04-18 06:20 36.84128 118.80861 28454 ft 456 kts 313°
2026-04-18 06:20 36.86318 118.78022 28719 ft 456 kts 313°
2026-04-18 06:20 36.88523 118.75156 29051 ft 454 kts 313°
2026-04-18 06:21 36.90709 118.72312 29397 ft 453 kts 313°
2026-04-18 06:21 36.92911 118.69446 29747 ft 451 kts 313°
2026-04-18 06:21 36.95080 118.66621 30090 ft 450 kts 313°
2026-04-18 06:21 36.97259 118.63780 30373 ft 448 kts 313°
2026-04-18 06:22 36.99398 118.60987 30643 ft 447 kts 313°
2026-04-18 06:22 37.01570 118.58155 30910 ft 447 kts 313°
2026-04-18 06:22 37.03710 118.55362 31204 ft 446 kts 313°
2026-04-18 06:22 37.05886 118.52522 31500 ft 445 kts 313°
2026-04-18 06:23 37.08033 118.49716 31794 ft 445 kts 313°
2026-04-18 06:23 37.10188 118.46899 32090 ft 444 kts 313°
2026-04-18 06:23 37.11757 118.44844 32294 ft 443 kts 313°
2026-04-18 06:23 37.13896 118.42041 32581 ft 443 kts 313°
2026-04-18 06:24 37.16143 118.39095 32885 ft 442 kts 313°
2026-04-18 06:24 37.18288 118.36276 33167 ft 441 kts 312°
2026-04-18 06:24 37.20427 118.33459 33431 ft 441 kts 312°
2026-04-18 06:24 37.22713 118.30449 33705 ft 441 kts 312°
2026-04-18 06:25 37.24527 118.28059 33907 ft 440 kts 312°
2026-04-18 06:25 37.26719 118.25171 34147 ft 440 kts 312°
2026-04-18 06:25 37.28556 118.22746 34326 ft 440 kts 312°
2026-04-18 06:25 37.30249 118.20510 34497 ft 439 kts 312°
2026-04-18 06:26 37.31700 118.18592 34637 ft 439 kts 312°
2026-04-18 06:26 37.33889 118.15699 34843 ft 438 kts 312°
2026-04-18 06:26 37.36056 118.12832 35042 ft 438 kts 312°
2026-04-18 06:26 37.38169 118.10038 35234 ft 438 kts 312°
2026-04-18 06:27 37.40239 118.07297 35414 ft 437 kts 312°
2026-04-18 06:27 37.42308 118.04564 35595 ft 437 kts 312°
2026-04-18 06:27 37.44427 118.01771 35767 ft 437 kts 312°
2026-04-18 06:27 37.46500 117.99031 35936 ft 436 kts 312°
2026-04-18 06:28 37.48612 117.96231 36049 ft 437 kts 311°
2026-04-18 06:28 37.52815 117.90637 36059 ft 440 kts 311°
2026-04-18 06:29 37.56949 117.85116 36058 ft 439 kts 311°
2026-04-18 06:29 37.60171 117.80797 36063 ft 439 kts 311°
2026-04-18 06:30 37.64351 117.75204 36055 ft 439 kts 311°
2026-04-18 06:30 37.68415 117.69773 36059 ft 439 kts 311°
2026-04-18 06:31 37.72595 117.64171 36059 ft 438 kts 311°
2026-04-18 06:31 37.76754 117.58573 36061 ft 438 kts 311°
2026-04-18 06:32 37.80906 117.52980 36057 ft 437 kts 311°
2026-04-18 06:32 37.84488 117.48148 36054 ft 437 kts 311°
2026-04-18 06:33 37.85566 117.46691 36058 ft 437 kts 311°
2026-04-18 06:33 37.89543 117.41313 36049 ft 436 kts 311°
2026-04-18 06:34 37.93117 117.36469 36047 ft 436 kts 311°
2026-04-18 06:34 37.97267 117.30848 36043 ft 436 kts 311°
2026-04-18 06:35 38.00680 117.26195 36038 ft 435 kts 311°
2026-04-18 06:35 38.04757 117.20634 36038 ft 435 kts 311°
2026-04-18 06:36 38.08853 117.15052 36039 ft 434 kts 311°
2026-04-18 06:36 38.12919 117.09507 36033 ft 434 kts 311°
2026-04-18 06:37 38.17035 117.03897 36042 ft 430 kts 311°
2026-04-18 06:37 38.21120 116.98288 36032 ft 429 kts 311°
2026-04-18 06:38 38.24083 116.94209 36029 ft 429 kts 311°
2026-04-18 06:38 38.28141 116.88627 36012 ft 424 kts 311°
2026-04-18 06:38 38.30120 116.85907 36009 ft 407 kts 311°
2026-04-18 06:39 38.31993 116.83335 36012 ft 390 kts 311°
2026-04-18 06:39 38.35643 116.78309 36004 ft 386 kts 311°
2026-04-18 06:40 38.39275 116.73295 36001 ft 386 kts 311°
2026-04-18 06:40 38.42903 116.68270 35999 ft 386 kts 311°
2026-04-18 06:41 38.46407 116.63400 36000 ft 386 kts 311°
2026-04-18 06:41 38.49922 116.58509 35992 ft 385 kts 311°